TimeCDT,TemperatureF,Dew PointF,Humidity,Sea Level PressureIn,VisibilityMPH,Wind Direction,Wind SpeedMPH,Gust SpeedMPH,PrecipitationIn,Events,Conditions,WindDirDegrees,DateUTC
12:58 AM,61.9,58.6,89,30.09,10.0,Calm,Calm,-,N/A,,Clear,0,2013-04-10 05:58:00
1:58 AM,59.5,57.0,91,30.07,10.0,ENE,3.5,-,N/A,,Clear,70,2013-04-10 06:58:00
2:58 AM,58.1,56.7,95,30.04,10.0,ENE,2.3,-,N/A,,Clear,70,2013-04-10 07:58:00
3:58 AM,58.1,56.7,95,30.04,10.0,NE,3.5,-,N/A,,Clear,50,2013-04-10 08:58:00
4:58 AM,57.0,55.9,96,30.04,10.0,ENE,2.3,-,N/A,,Clear,70,2013-04-10 09:58:00
5:58 AM,57.6,56.3,96,30.05,10.0,ENE,5.8,-,N/A,,Clear,70,2013-04-10 10:58:00
6:58 AM,59.7,57.6,93,30.06,10.0,East,4.6,-,N/A,,Clear,100,2013-04-10 11:58:00
7:58 AM,65.5,58.8,79,30.06,10.0,SE,6.9,-,N/A,,Clear,130,2013-04-10 12:58:00
8:58 AM,71.6,60.8,69,30.06,10.0,SE,13.8,-,N/A,,Clear,140,2013-04-10 13:58:00
9:58 AM,76.5,62.8,62,30.08,10.0,SSE,11.5,-,N/A,,Clear,160,2013-04-10 14:58:00
10:58 AM,79.3,62.6,56,30.09,10.0,SE,10.4,-,N/A,,Clear,130,2013-04-10 15:58:00
11:58 AM,81.3,61.5,51,30.08,10.0,SSE,10.4,16.1,N/A,,Partly Cloudy,160,2013-04-10 16:58:00
12:58 PM,82.2,60.8,48,30.07,10.0,South,11.5,-,N/A,,Mostly Cloudy,180,2013-04-10 17:58:00
1:58 PM,83.5,60.8,46,30.03,10.0,SSE,10.4,-,N/A,,Mostly Cloudy,150,2013-04-10 18:58:00
2:58 PM,84.9,60.3,43,30.01,10.0,South,8.1,-,N/A,,Partly Cloudy,180,2013-04-10 19:58:00
3:58 PM,83.7,59.2,43,30.00,10.0,Variable,3.5,-,N/A,,Scattered Clouds,0,2013-04-10 20:58:00
4:58 PM,82.4,59.9,46,29.99,10.0,SE,5.8,-,N/A,,Scattered Clouds,130,2013-04-10 21:58:00
5:58 PM,82.4,60.6,48,29.97,10.0,SSE,8.1,-,N/A,,Clear,150,2013-04-10 22:58:00
6:58 PM,77.7,61.5,57,29.96,10.0,South,4.6,-,N/A,,Clear,170,2013-04-10 23:58:00
7:58 PM,73.6,61.3,65,29.96,10.0,South,5.8,-,N/A,,Clear,180,2013-04-11 00:58:00
8:58 PM,71.1,58.8,65,29.96,10.0,South,5.8,-,N/A,,Clear,180,2013-04-11 01:58:00
9:58 PM,69.1,59.0,70,29.96,10.0,South,3.5,-,N/A,,Clear,190,2013-04-11 02:58:00
10:58 PM,66.9,59.2,76,29.95,10.0,SSE,2.3,-,N/A,,Clear,160,2013-04-11 03:58:00
11:58 PM,65.3,59.0,80,29.94,10.0,SSE,4.6,-,N/A,,Clear,160,2013-04-11 04:58:00